Location: Kennington
(51.1500°N, 0.8833°E)
Time: 10:46:51
(UTC+00:00)

Meteor 1-5 Rocket - Pass Details

Date: 21 September 2020
Orbit: 789 x 915 km, 81.2° (Epoch: 30 October)

Event Time Altitude Azimuth Distance (km) Brightness Sun altitude
Rises 04:18:04 0° 342° (NNW) 3,299 7.3 -13.7°
Reaches altitude 10° 04:20:33 10° 335° (NNW) 2,368 6.5 -13.3°
Maximum altitude 04:25:28 40° 268° (W) 1,171 4.5 -12.6°
Drops below altitude 10° 04:30:27 10° 200° (SSW) 2,389 6.2 -11.8°
Sets 04:32:58 0° 193° (SSW) 3,332 7.0 -11.4°
